Cloud_Cover
97 90 90 66 43 99 95 60 100 100 100 100 99 84 35 77 70 61 20 19 54 14 5 5 8 5 9 6 5 12 5 9 72 5 5 5 5 5 7 23 5 4 13
100 100 100 100 100 100 100 100 100 100 97 25 75 39 20 65 71 64 51 52 89 32 5 35 27 44 67 92 92 99 80 35 72 86 51 63 5 5 5 5 7 5 3
100 100 100 100 100 100 100 100 100 99 92 99 94 75 86 90 100 96 78 62 99 97 100 100 71 81 84 100 97 100 100 100 82 62 35 15 39 6 5 91 97 67 5
100 100 100 100 98 100 100 100 100 100 99 84 98 98 86 100 100 77 64 76 69 58 84 100 97 96 100 100 100 100 96 95 100 100 98 80 68 58 17 6 61 54 20
100 100 100 100 100 100 100 97 87 62 66 82 67 98 100 100 74 100 100 92 99 92 73 95 100 100 91 100 100 100 100 100 100 100 100 100 100 100 94 62 41 5 83
100 100 100 100 100 100 100 87 100 75 65 75 96 93 99 97 100 79 59 81 73 100 100 100 100 100 100 73 100 100 100 100 100 100 100 100 100 100 80 80 80 5 3
100 100 100 100 100 100 100 91 83 53 54 100 93 61 58 75 92 99 98 92 100 97 98 97 86 100 100 100 100 100 100 100 100 100 86 92 83 92 62 54 8 5 5
100 100 100 100 100 73 30 27 5 8 57 89 92 66 87 91 96 98 100 62 99 83 86 94 100 100 100 100 97 95 97 100 100 100 100 97 87 90 100 71 30 66 13
100 93 77 100 51 5 5 37 46 95 96 80 100 92 98 98 100 85 73 99 100 100 95 100 100 100 100 100 100 100 100 100 100 71 96 100 100 52 69 4 5 62 4
100 91 5 5 5 5 77 38 50 72 85 99 100 100 98 91 98 96 92 96 100 100 100 100 100 99 84 100 98 89 61 38 4 3 0 0 0 0 5 5 14 95 100
5 5 5 5 5 5 7 95 99 95 90 89 99 97 99 96 72 98 99 67 57 85 73 28 49 100 95 100 97 91 80 9 4 2 0 0 0 0 3 5 5 5 91
5 28 50 36 50 55 98 96 98 82 95 100 78 100 100 85 13 93 100 97 29 42 7 27 13 100 81 91 84 100 78 1 4 5 5 5 5 5 5 5 5 5 5
69 96 97 86 96 99 96 98 98 89 77 95 90 100 38 54 24 78 98 100 69 4 5 54 98 99 48 3 100 100 10 5 5 5 5 5 5 5 5 5 5 5 4
96 100 100 100 100 100 99 92 85 86 100 83 74 9 49 55 59 11 5 25 20 2 4 6 43 15 52 4 1 5 5 5 5 5 5 5 5 5 5 5 5 5 5
80 100 100 100 100 100 100 87 87 88 48 5 5 5 5 40 5 41 30 8 5 3 5 5 5 5 5 5 5 5 5 5 5 5 5 5 5 5 5 5 5 13 14
100 100 100 100 100 100 96 83 93 53 99 62 4 2 5 12 64 100 100 100 100 94 8 5 5 5 5 5 5 5 5 5 5 5 5 5 5 17 16 5 5 10 73
100 100 100 100 100 99 79 84 99 100 88 60 15 5 4 7 100 100 100 87 100 73 5 5 5 5 5 5 5 5 5 5 5 5 5 5 5 5 7 5 5 8 64
100 100 100 100 100 99 99 100 79 5 52 95 95 86 99 89 100 100 100 94 66 73 5 5 5 5 5 5 5 5 5 5 5 5 5 5 36 94 67 24 34 99 100
100 100 100 100 100 100 100 22 5 21 44 54 5 68 52 45 68 100 95 67 3 5 5 46 16 6 17 5 5 6 29 5 5 7 7 22 6 99 86 73 84 77 100
100 100 100 100 100 91 5 5 5 5 27 5 5 4 5 6 54 96 58 5 5 5 5 5 5 9 5 26 30 16 22 16 6 8 6 12 7 72 96 100 100 100 100
100 100 100 99 5 5 5 5 5 5 5 5 2 19 35 3 2 5 64 49 5 5 5 5 5 5 5 10 45 59 61 13 7 16 14 9 24 87 54 100 100 100 100
100 76 9 5 5 5 5 5 5 5 5 5 5 68 8 95 7 5 5 41 8 5 5 5 5 5 5 12 5 44 49 18 5 6 7 6 12 11 60 100 100 100 98
96 46 5 8 16 5 6 5 5 5 5 5 5 5 5 19 50 66 21 5 5 5 5 5 5 5 5 5 5 5 5 5 5 5 5 41 5 5 69 100 100 100 100
5 5 5 5 5 5 5 5 5 5 5 5 5 5 5 5 5 5 5 5 5 5 5 5 13 5 5 5 5 5 5 5 6 5 5 11 5 5 98 100 100 100 100
5 5 5 5 5 5 5 5 5 5 5 5 5 5 5 5 5 5 5 5 5 5 5 5 5 5 5 5 5 5 28 95 99 99 84 71 27 17 100 100 100 100 99
5 5 4 5 5 5 5 5 5 8 60 5 8 5 5 5 6 26 8 18 53 33 24 5 5 5 5 5 5 35 40 100 49 25 38 84 92 100 100 100 100 100 100